Find Starlink 38346

NORAD ID: 100547 Int'l Des: 2026-200 Owner: SPXS Country: US Constellation: starlink operational

Current View

Loading 3D Globe...

About Starlink 38346

Starlink 38346 (NORAD 100547) is a starlink constellation satellite launched Sep 2, 2026 by SPXS of US. with a mass of 575.00 kg.

Upcoming Passes

Passes for default location (London). Set your location on the main map for personalized predictions.

Altitude History

Loading altitude history...

Two-Line Element Set

1 A0547U 26200P 26253.16269834 -.00437534 00000-0 -19482-2 0 9997
2 A0547 69.9972 164.7643 0005506 260.0948 99.9634 15.85035938 1251
Epoch: Sep 10, 2026 • Age: 43 hours

Current Status

Altitude 338.2 km
Apogee / Perigee N/A
Velocity 7.71 km/s
Sub-Earth Point -55.34°S, 29.9°E
Launch Date Sep 2, 2026
Age 9 days
Type internet

Technical Details

Classification Payload
Mass 575.00 kg
Dry Mass 530.00 kg
Total Mass 575.00 kg
Length 0.30 m
Diameter 4.10 m
Span 29.00 m
Shape Box + pan
Manufacturer SPXS
Bus Type Starlink V2MO
Phase Status In Orbit
Owner/State SPXS/US

Most Searched